Location: Newark
(42.1399°N, 3.1179°E)
Time: 21:16:27
(UTC+00:00)

Tiangong 2 - Visible Passes

Search period start: 18 July 2019 00:00
Search period end: 28 July 2019 00:00
Orbit: 378 x 386 km, 42.8° (Epoch: 18 July)

Date Brightness Start Highest point End Pass type
(mag) Time Alt. Az. Time Alt. Az. Time Alt. Az.
18 Jul 1.0 20:13:14 10° W 20:16:22 85° S 20:19:09 13° ESE visible
18 Jul 3.3 21:50:10 10° W 21:51:17 17° WSW 21:51:17 17° WSW visible
19 Jul 1.6 20:49:37 10° W 20:52:37 41° SSW 20:53:28 32° SSE visible
20 Jul 1.2 19:49:12 10° W 19:52:20 64° SSW 19:55:25 10° ESE visible
20 Jul 3.4 21:26:35 10° WSW 21:27:49 15° SW 21:27:49 15° SW visible
21 Jul 2.4 20:25:45 10° W 20:28:27 27° SSW 20:30:04 17° SSE visible
23 Jul 3.2 20:02:07 10° WSW 20:04:14 17° SSW 20:06:20 10° S visible
